AZU5144 SBKP-SBJR

Flight info

Callsign AZU5144
Flight time N/A
Altitude 9000
Route DORLU DCT SCR
Aircraft C208/L-SDFGR/S

Departure

Time 2026-05-08 18:27
Airport Viracopos International Airport (SBKP)

Arrival

Time N/A
Airport Jacarepaguá - Roberto Marinho Airport (SBJR)
Time Latitude Longitude Altitude Speed Heading
2026-05-08 18:12 -23.00996 -47.13611 2163 ft 0 kts 127°
2026-05-08 18:23 -23.00987 -47.13623 2159 ft 3 kts 127°
2026-05-08 18:23 -23.00976 -47.13639 2156 ft 3 kts 127°
2026-05-08 18:23 -23.00974 -47.13642 2157 ft 0 kts 127°
2026-05-08 18:24 -23.00951 -47.13621 2162 ft 10 kts 341°
2026-05-08 18:24 -23.00938 -47.13687 2162 ft 10 kts 296°
2026-05-08 18:25 -23.00868 -47.13716 2158 ft 11 kts
2026-05-08 18:25 -23.00807 -47.13675 2161 ft 10 kts 39°
2026-05-08 18:25 -23.00756 -47.13625 2158 ft 11 kts 49°
2026-05-08 18:25 -23.00749 -47.13520 2160 ft 19 kts 101°
2026-05-08 18:26 -23.00815 -47.13349 2162 ft 42 kts 126°
2026-05-08 18:26 -23.01123 -47.12917 2164 ft 98 kts 128°
2026-05-08 18:26 -23.01614 -47.12275 2307 ft 114 kts 125°
2026-05-08 18:26 -23.02134 -47.11629 2582 ft 114 kts 129°
2026-05-08 18:27 -23.02674 -47.10991 2884 ft 116 kts 126°
2026-05-08 18:27 -23.03034 -47.10507 2952 ft 128 kts 112°
2026-05-08 18:27 -23.03189 -47.09348 3270 ft 120 kts 77°
2026-05-08 18:27 -23.03141 -47.08470 3563 ft 118 kts 76°
2026-05-08 18:28 -23.03083 -47.07515 3670 ft 135 kts 77°
2026-05-08 18:28 -23.03021 -47.06555 4115 ft 118 kts 78°
2026-05-08 18:28 -23.02982 -47.05679 4342 ft 117 kts 75°
2026-05-08 18:28 -23.02942 -47.04799 4650 ft 117 kts 77°
2026-05-08 18:29 -23.02760 -47.03986 4939 ft 107 kts 52°
2026-05-08 18:29 -23.02716 -47.03136 5199 ft 125 kts 95°
2026-05-08 18:29 -23.02885 -47.02217 5498 ft 124 kts 89°
2026-05-08 18:29 -23.03044 -47.01279 5759 ft 128 kts 92°
2026-05-08 18:30 -23.03223 -47.00337 6022 ft 126 kts 92°
2026-05-08 18:30 -23.03340 -46.99720 6180 ft 126 kts 92°
2026-05-08 18:30 -23.03577 -46.98472 6507 ft 127 kts 92°
2026-05-08 18:30 -23.03759 -46.97536 6744 ft 127 kts 92°
2026-05-08 18:31 -23.03939 -46.96587 6954 ft 129 kts 93°
2026-05-08 18:31 -23.04124 -46.95636 7192 ft 128 kts 92°
2026-05-08 18:31 -23.04300 -46.94704 7443 ft 128 kts 92°
2026-05-08 18:31 -23.04486 -46.93756 7689 ft 129 kts 93°
2026-05-08 18:32 -23.04666 -46.92797 7895 ft 131 kts 93°
2026-05-08 18:32 -23.04856 -46.91826 8120 ft 132 kts 95°
2026-05-08 18:32 -23.05043 -46.90844 8349 ft 132 kts 94°
2026-05-08 18:32 -23.05227 -46.89871 8587 ft 132 kts 93°
2026-05-08 18:33 -23.05417 -46.88895 8815 ft 132 kts 92°
2026-05-08 18:33 -23.05602 -46.87914 9008 ft 138 kts 93°
2026-05-08 18:33 -23.05807 -46.86845 9019 ft 154 kts 95°
2026-05-08 18:33 -23.06040 -46.85663 9024 ft 165 kts 95°
2026-05-08 18:34 -23.06280 -46.84412 9016 ft 174 kts 95°
2026-05-08 18:34 -23.06529 -46.83110 9023 ft 178 kts 95°
2026-05-08 18:34 -23.06784 -46.81778 9016 ft 182 kts 96°
2026-05-08 18:34 -23.07043 -46.80430 9021 ft 183 kts 96°
2026-05-08 18:35 -23.07304 -46.79069 9027 ft 183 kts 96°
2026-05-08 18:35 -23.07563 -46.77707 8999 ft 187 kts 96°
2026-05-08 18:35 -23.07824 -46.76346 9001 ft 186 kts 96°
2026-05-08 18:35 -23.08088 -46.74964 8995 ft 187 kts 96°
2026-05-08 18:36 -23.08348 -46.73587 9001 ft 187 kts 96°
2026-05-08 18:36 -23.08612 -46.72200 9000 ft 188 kts 96°
2026-05-08 18:36 -23.08876 -46.70814 8999 ft 188 kts 96°
2026-05-08 18:36 -23.09142 -46.69428 9004 ft 188 kts 96°
2026-05-08 18:37 -23.09406 -46.68030 9004 ft 190 kts 96°
2026-05-08 18:37 -23.09673 -46.66623 9003 ft 190 kts 96°
2026-05-08 18:37 -23.09941 -46.65218 9002 ft 190 kts 96°
2026-05-08 18:37 -23.10208 -46.63812 9009 ft 191 kts 96°
2026-05-08 18:38 -23.10473 -46.62420 9007 ft 190 kts 96°
2026-05-08 18:38 -23.10740 -46.61013 9010 ft 191 kts 96°
2026-05-08 18:38 -23.11008 -46.59599 9003 ft 191 kts 96°
2026-05-08 18:38 -23.11274 -46.58189 9003 ft 191 kts 96°
2026-05-08 18:39 -23.11540 -46.56785 9001 ft 190 kts 96°
2026-05-08 18:39 -23.11808 -46.55374 9007 ft 190 kts 96°
2026-05-08 18:39 -23.12076 -46.53960 9006 ft 191 kts 96°
2026-05-08 18:39 -23.12344 -46.52539 9004 ft 193 kts 96°
2026-05-08 18:40 -23.12608 -46.51134 9013 ft 193 kts 96°
2026-05-08 18:40 -23.12879 -46.49714 9006 ft 191 kts 96°
2026-05-08 18:40 -23.13145 -46.48303 9005 ft 190 kts 96°
2026-05-08 18:40 -23.13410 -46.46897 8999 ft 189 kts 96°
2026-05-08 18:41 -23.13673 -46.45496 8997 ft 190 kts 96°
2026-05-08 18:41 -23.13938 -46.44091 9001 ft 190 kts 96°
2026-05-08 18:41 -23.14204 -46.42683 8999 ft 190 kts 96°
2026-05-08 18:41 -23.14465 -46.41299 9000 ft 189 kts 96°
2026-05-08 18:42 -23.14728 -46.39903 8997 ft 189 kts 95°
2026-05-08 18:42 -23.14989 -46.38508 8994 ft 188 kts 97°
2026-05-08 18:42 -23.15249 -46.37120 8987 ft 188 kts 97°
2026-05-08 18:42 -23.15508 -46.35742 9003 ft 186 kts 96°
2026-05-08 18:43 -23.15768 -46.34362 9004 ft 187 kts 96°
2026-05-08 18:43 -23.16029 -46.32977 9008 ft 188 kts 96°
2026-05-08 18:43 -23.16290 -46.31579 9004 ft 189 kts 96°
2026-05-08 18:43 -23.16554 -46.30187 9007 ft 189 kts 95°
2026-05-08 18:44 -23.16810 -46.28802 9002 ft 190 kts 96°
2026-05-08 18:44 -23.17071 -46.27403 8999 ft 188 kts 96°
2026-05-08 18:44 -23.17336 -46.26008 9005 ft 189 kts 95°
2026-05-08 18:44 -23.17595 -46.24607 9005 ft 190 kts 96°
2026-05-08 18:45 -23.17859 -46.23204 9001 ft 189 kts 96°
2026-05-08 18:45 -23.18122 -46.21801 9000 ft 190 kts 96°
2026-05-08 18:45 -23.18385 -46.20390 9004 ft 191 kts 96°
2026-05-08 18:45 -23.18650 -46.18974 9000 ft 191 kts 96°
2026-05-08 18:46 -23.18913 -46.17576 8999 ft 192 kts 96°
2026-05-08 18:46 -23.19178 -46.16156 9007 ft 191 kts 97°
2026-05-08 18:46 -23.19441 -46.14739 9003 ft 191 kts 97°
2026-05-08 18:46 -23.19705 -46.13320 9007 ft 192 kts 97°
2026-05-08 18:47 -23.19971 -46.11895 9004 ft 192 kts 96°
2026-05-08 18:47 -23.20236 -46.10478 8999 ft 191 kts 96°
2026-05-08 18:47 -23.20498 -46.09068 8997 ft 190 kts 96°
2026-05-08 18:47 -23.20758 -46.07662 8997 ft 190 kts 97°
2026-05-08 18:48 -23.21017 -46.06270 8998 ft 191 kts 97°
2026-05-08 18:48 -23.21280 -46.04856 8999 ft 191 kts 97°
2026-05-08 18:48 -23.21544 -46.03440 8990 ft 191 kts 96°
2026-05-08 18:48 -23.21805 -46.02035 8995 ft 189 kts 95°
2026-05-08 18:49 -23.22063 -46.00641 8998 ft 189 kts 96°
2026-05-08 18:49 -23.22323 -45.99233 8995 ft 191 kts 96°
2026-05-08 18:49 -23.22584 -45.97818 8999 ft 191 kts 96°
2026-05-08 18:49 -23.22850 -45.96405 8998 ft 190 kts 96°
2026-05-08 18:50 -23.23109 -45.94997 9001 ft 190 kts 96°
2026-05-08 18:50 -23.23365 -45.93607 8997 ft 190 kts 96°
2026-05-08 18:50 -23.23625 -45.92203 8997 ft 190 kts 96°
2026-05-08 18:50 -23.23886 -45.90795 8997 ft 190 kts 96°
2026-05-08 18:51 -23.24146 -45.89385 8997 ft 190 kts 96°
2026-05-08 18:51 -23.24406 -45.87973 8995 ft 190 kts 96°
2026-05-08 18:51 -23.24668 -45.86569 8989 ft 189 kts 96°
2026-05-08 18:51 -23.24925 -45.85165 8994 ft 189 kts 96°
2026-05-08 18:52 -23.25180 -45.83770 9000 ft 188 kts 96°
2026-05-08 18:52 -23.25436 -45.82392 8998 ft 189 kts 96°
2026-05-08 18:52 -23.25696 -45.80987 8996 ft 189 kts 96°
2026-05-08 18:52 -23.25954 -45.79579 9000 ft 190 kts 96°
2026-05-08 18:53 -23.26215 -45.78166 9004 ft 191 kts 96°
2026-05-08 18:53 -23.26477 -45.76751 8999 ft 190 kts 97°
2026-05-08 18:53 -23.26733 -45.75354 8992 ft 187 kts 97°
2026-05-08 18:53 -23.26984 -45.73978 9002 ft 185 kts 96°
2026-05-08 18:54 -23.27236 -45.72617 8999 ft 188 kts 96°
2026-05-08 18:54 -23.27489 -45.71218 8997 ft 189 kts 95°
2026-05-08 18:54 -23.27745 -45.69814 9004 ft 190 kts 96°
2026-05-08 18:54 -23.28007 -45.68400 9002 ft 191 kts 96°
2026-05-08 18:55 -23.28523 -45.65583 9005 ft 191 kts 95°
2026-05-08 18:55 -23.28785 -45.64158 9015 ft 193 kts 95°
2026-05-08 18:55 -23.29051 -45.62703 9001 ft 197 kts 96°
2026-05-08 18:56 -23.29317 -45.61262 9001 ft 193 kts 96°
2026-05-08 18:56 -23.29570 -45.59866 8990 ft 188 kts 95°
2026-05-08 18:56 -23.29822 -45.58476 8964 ft 187 kts 95°
2026-05-08 18:56 -23.30078 -45.57086 8972 ft 188 kts 95°
2026-05-08 18:57 -23.30334 -45.55689 8978 ft 189 kts 95°
2026-05-08 18:57 -23.30502 -45.54752 8972 ft 191 kts 95°
2026-05-08 18:57 -23.30848 -45.52859 8983 ft 192 kts 95°
2026-05-08 18:57 -23.31109 -45.51441 8980 ft 188 kts 96°
2026-05-08 18:58 -23.31360 -45.50052 8985 ft 188 kts 95°
2026-05-08 18:58 -23.31608 -45.48677 8977 ft 187 kts 95°
2026-05-08 18:58 -23.31860 -45.47283 8973 ft 189 kts 95°
2026-05-08 18:58 -23.32117 -45.45882 8974 ft 189 kts 95°
2026-05-08 18:59 -23.32373 -45.44478 8977 ft 189 kts 95°
2026-05-08 18:59 -23.32629 -45.43069 8986 ft 190 kts 95°
2026-05-08 18:59 -23.32887 -45.41651 8986 ft 193 kts 95°
2026-05-08 18:59 -23.33148 -45.40217 8977 ft 193 kts 95°
2026-05-08 19:00 -23.33320 -45.39270 8990 ft 192 kts 95°
2026-05-08 19:00 -23.33667 -45.37364 8981 ft 190 kts 95°
2026-05-08 19:00 -23.33916 -45.35974 8982 ft 188 kts 95°
2026-05-08 19:00 -23.34163 -45.34592 8977 ft 184 kts 94°
2026-05-08 19:01 -23.34411 -45.33219 8993 ft 188 kts 96°
2026-05-08 19:01 -23.34632 -45.31807 8983 ft 187 kts 85°
2026-05-08 19:01 -23.34444 -45.30450 8978 ft 179 kts 67°
2026-05-08 19:01 -23.34111 -45.29144 8972 ft 179 kts 67°
2026-05-08 19:02 -23.33799 -45.27834 8978 ft 179 kts 66°
2026-05-08 19:02 -23.33487 -45.26535 8956 ft 173 kts 67°
2026-05-08 19:02 -23.33190 -45.25319 8978 ft 171 kts 66°
2026-05-08 19:02 -23.32868 -45.24069 8987 ft 172 kts 67°
2026-05-08 19:03 -23.32556 -45.22795 8977 ft 175 kts 68°
2026-05-08 19:03 -23.32247 -45.21511 8976 ft 175 kts 67°
2026-05-08 19:03 -23.31944 -45.20250 8989 ft 171 kts 67°
2026-05-08 19:03 -23.31633 -45.18996 8978 ft 173 kts 67°
2026-05-08 19:04 -23.31316 -45.17729 8983 ft 176 kts 67°
2026-05-08 19:04 -23.31000 -45.16439 8991 ft 176 kts 67°
2026-05-08 19:04 -23.30686 -45.15150 8984 ft 176 kts 68°
2026-05-08 19:04 -23.30477 -45.14306 8976 ft 173 kts 67°
2026-05-08 19:05 -23.30081 -45.12650 8965 ft 164 kts 67°
2026-05-08 19:05 -23.29780 -45.11456 8981 ft 166 kts 65°
2026-05-08 19:05 -23.29469 -45.10229 8988 ft 171 kts 66°
2026-05-08 19:05 -23.29164 -45.08966 8987 ft 174 kts 66°
2026-05-08 19:06 -23.28849 -45.07682 8984 ft 177 kts 67°
2026-05-08 19:06 -23.28637 -45.06823 8978 ft 178 kts 68°
2026-05-08 19:06 -23.28321 -45.05532 8973 ft 176 kts 68°
2026-05-08 19:06 -23.27904 -45.03833 8982 ft 176 kts 67°
2026-05-08 19:07 -23.27584 -45.02541 8974 ft 177 kts 66°
2026-05-08 19:07 -23.27268 -45.01257 8978 ft 175 kts 66°
2026-05-08 19:07 -23.26950 -44.99972 8981 ft 177 kts 66°
2026-05-08 19:07 -23.26630 -44.98673 8985 ft 179 kts 67°
2026-05-08 19:08 -23.26415 -44.97804 8984 ft 181 kts 67°
2026-05-08 19:08 -23.26091 -44.96488 8971 ft 177 kts 67°
2026-05-08 19:08 -23.25776 -44.95205 8970 ft 176 kts 66°
2026-05-08 19:08 -23.25458 -44.93930 8982 ft 174 kts 66°
2026-05-08 19:09 -23.25024 -44.92194 8989 ft 186 kts 68°
2026-05-08 19:09 -23.24689 -44.90808 8971 ft 189 kts 68°
2026-05-08 19:09 -23.24344 -44.89424 8965 ft 188 kts 67°
2026-05-08 19:09 -23.24012 -44.88066 8967 ft 185 kts 67°
2026-05-08 19:10 -23.23789 -44.87174 8958 ft 184 kts 67°
2026-05-08 19:10 -23.23461 -44.85847 8985 ft 180 kts 67°
2026-05-08 19:10 -23.23133 -44.84535 8979 ft 180 kts 66°
2026-05-08 19:10 -23.22702 -44.82790 8968 ft 180 kts 67°
2026-05-08 19:11 -23.22373 -44.81475 8963 ft 181 kts 67°
2026-05-08 19:11 -23.22154 -44.80585 8957 ft 180 kts 66°
2026-05-08 19:11 -23.21830 -44.79283 8971 ft 179 kts 67°
2026-05-08 19:11 -23.21509 -44.77993 8968 ft 180 kts 67°
2026-05-08 19:12 -23.21184 -44.76679 8971 ft 181 kts 67°
2026-05-08 19:12 -23.20855 -44.75352 8960 ft 181 kts 67°
2026-05-08 19:12 -23.20532 -44.74048 8955 ft 177 kts 67°
2026-05-08 19:12 -23.20208 -44.72759 8957 ft 176 kts 67°
2026-05-08 19:13 -23.19888 -44.71473 8956 ft 177 kts 68°
2026-05-08 19:13 -23.19568 -44.70183 8956 ft 177 kts 67°
2026-05-08 19:13 -23.19247 -44.68895 8955 ft 177 kts 67°
2026-05-08 19:13 -23.18931 -44.67623 8950 ft 177 kts 68°
2026-05-08 19:14 -23.18610 -44.66335 8954 ft 177 kts 68°
2026-05-08 19:14 -23.18288 -44.65046 8949 ft 177 kts 68°
2026-05-08 19:14 -23.17967 -44.63759 8947 ft 177 kts 68°
2026-05-08 19:14 -23.17646 -44.62469 8953 ft 177 kts 68°
2026-05-08 19:15 -23.17324 -44.61181 8947 ft 177 kts 68°
2026-05-08 19:15 -23.17003 -44.59893 8946 ft 177 kts 68°
2026-05-08 19:15 -23.16681 -44.58607 8954 ft 177 kts 68°
2026-05-08 19:15 -23.16360 -44.57319 8939 ft 177 kts 68°
2026-05-08 19:16 -23.16043 -44.56051 8944 ft 176 kts 68°
2026-05-08 19:16 -23.15722 -44.54764 8946 ft 176 kts 68°
2026-05-08 19:16 -23.15400 -44.53479 8949 ft 176 kts 68°
2026-05-08 19:16 -23.15079 -44.52195 8939 ft 176 kts 68°
2026-05-08 19:17 -23.14758 -44.50911 8947 ft 176 kts 68°
2026-05-08 19:17 -23.14436 -44.49627 8946 ft 176 kts 68°
2026-05-08 19:17 -23.14115 -44.48346 8947 ft 176 kts 68°
2026-05-08 19:17 -23.13798 -44.47081 8947 ft 176 kts 68°
2026-05-08 19:18 -23.13477 -44.45801 8942 ft 176 kts 68°
2026-05-08 19:18 -23.13156 -44.44521 8943 ft 176 kts 68°
2026-05-08 19:18 -23.12836 -44.43243 8944 ft 175 kts 68°
2026-05-08 19:18 -23.12516 -44.41965 8941 ft 175 kts 68°
2026-05-08 19:19 -23.12195 -44.40688 8942 ft 175 kts 68°
2026-05-08 19:19 -23.11874 -44.39411 8936 ft 175 kts 68°
2026-05-08 19:19 -23.11554 -44.38135 8935 ft 175 kts 68°
2026-05-08 19:19 -23.11238 -44.36879 8934 ft 175 kts 68°
2026-05-08 19:20 -23.10918 -44.35605 8930 ft 175 kts 68°
2026-05-08 19:20 -23.10706 -44.34761 8936 ft 175 kts 68°
2026-05-08 19:20 -23.10278 -44.33060 8936 ft 175 kts 68°
2026-05-08 19:20 -23.09958 -44.31790 8936 ft 175 kts 68°
2026-05-08 19:21 -23.09638 -44.30517 8937 ft 174 kts 68°
2026-05-08 19:21 -23.09318 -44.29247 8935 ft 174 kts 68°
2026-05-08 19:21 -23.09002 -44.27994 8932 ft 174 kts 68°
2026-05-08 19:21 -23.08682 -44.26725 8933 ft 175 kts 68°
2026-05-08 19:22 -23.08362 -44.25454 8933 ft 174 kts 68°
2026-05-08 19:22 -23.08042 -44.24183 8936 ft 174 kts 68°
2026-05-08 19:22 -23.07722 -44.22913 8934 ft 175 kts 68°
2026-05-08 19:22 -23.07401 -44.21640 8937 ft 174 kts 68°
2026-05-08 19:23 -23.07080 -44.20372 8937 ft 174 kts 68°
2026-05-08 19:23 -23.06760 -44.19107 8930 ft 174 kts 68°
2026-05-08 19:23 -23.06449 -44.17856 8932 ft 174 kts 68°
2026-05-08 19:23 -23.06143 -44.16587 8932 ft 174 kts 69°
2026-05-08 19:24 -23.05942 -44.15287 8932 ft 178 kts 83°
2026-05-08 19:24 -23.05826 -44.13971 8939 ft 173 kts 69°
2026-05-08 19:24 -23.05519 -44.12712 8939 ft 172 kts 68°
2026-05-08 19:24 -23.05202 -44.11458 8940 ft 172 kts 67°
2026-05-08 19:25 -23.04874 -44.10207 8938 ft 172 kts 67°
2026-05-08 19:25 -23.04545 -44.08957 8939 ft 172 kts 67°
2026-05-08 19:25 -23.04219 -44.07722 8938 ft 172 kts 67°
2026-05-08 19:25 -23.03885 -44.06470 8938 ft 172 kts 67°
2026-05-08 19:26 -23.03554 -44.05220 8937 ft 172 kts 67°
2026-05-08 19:26 -23.03225 -44.03969 8934 ft 173 kts 67°
2026-05-08 19:26 -23.02896 -44.02714 8935 ft 173 kts 67°
2026-05-08 19:26 -23.02565 -44.01462 8934 ft 173 kts 67°
2026-05-08 19:27 -23.02230 -44.00211 8933 ft 172 kts 66°
2026-05-08 19:27 -23.01898 -43.98958 8932 ft 173 kts 67°
2026-05-08 19:27 -23.01570 -43.97704 8930 ft 173 kts 67°
2026-05-08 19:27 -23.01245 -43.96467 8929 ft 173 kts 66°
2026-05-08 19:28 -23.00911 -43.95213 8930 ft 173 kts 66°
2026-05-08 19:28 -23.00581 -43.93960 8927 ft 173 kts 67°
2026-05-08 19:28 -23.00251 -43.92708 8926 ft 172 kts 67°
2026-05-08 19:28 -22.99919 -43.91457 8925 ft 172 kts 67°
2026-05-08 19:29 -22.99589 -43.90206 8922 ft 173 kts 67°
2026-05-08 19:29 -22.99273 -43.88945 8858 ft 174 kts 68°
2026-05-08 19:29 -22.98972 -43.87655 8650 ft 179 kts 69°
2026-05-08 19:29 -22.98678 -43.86335 8498 ft 179 kts 71°
2026-05-08 19:30 -22.98416 -43.85044 8349 ft 176 kts 71°
2026-05-08 19:30 -22.98213 -43.83724 8106 ft 179 kts 75°
2026-05-08 19:30 -22.98044 -43.82383 7904 ft 179 kts 77°
2026-05-08 19:30 -22.97906 -43.81032 7651 ft 182 kts 78°
2026-05-08 19:31 -22.97650 -43.79698 7397 ft 178 kts 65°
2026-05-08 19:31 -22.97231 -43.78432 7162 ft 177 kts 64°
2026-05-08 19:31 -22.96812 -43.77139 6806 ft 184 kts 65°
2026-05-08 19:31 -22.96399 -43.75816 6475 ft 186 kts 66°
2026-05-08 19:32 -22.96021 -43.74468 6155 ft 187 kts 68°
2026-05-08 19:32 -22.95665 -43.73125 5810 ft 189 kts 72°
2026-05-08 19:32 -22.95695 -43.71678 5490 ft 197 kts 97°
2026-05-08 19:32 -22.96009 -43.70210 5093 ft 200 kts 98°
2026-05-08 19:33 -22.96138 -43.68745 4872 ft 189 kts 85°
2026-05-08 19:33 -22.96133 -43.67304 4395 ft 196 kts 85°
2026-05-08 19:33 -22.96138 -43.67003 4313 ft 0 kts 86°